カタログに戻る

FENGYUN 1C DEB

運用中PO
NORAD 36225·DEBRIS·🇨🇳 China

打ち上げ May 10, 1999 から Taiyuan Satellite Launch Center

Loading…

次のパス (今後24時間)

TLE

最新Source: Space-Track

元期: Sep 14, 2026, 17:42 UTC

1 36225U 99025DVA 26257.73783229  .00081372  00000-0  21430-2 0  9999
2 36225  98.8286  71.2378 0019758  80.1508 280.1962 15.38027102709688

AllMySatでFENGYUN 1C DEBをリアルタイム追跡

Download on the App Store